KE9LZ Weather Reports


Display with metric or nautical units.
time (UTC)temp
F
wind
direction
speed
MPH
gust
MPH
rain 1hr
in
rain 24hr
in
rain mn
in
humidity
%
barometer
mb
20240612185003 84 222 6.0 18.0 0.00 0.09 0.09 44 1010.0
20240612184003 84 237 9.0 20.0 0.00 0.09 0.09 44 1010.4
20240612183004 84 211 9.0 15.0 0.00 0.09 0.09 45 1010.5
20240612182004 83 220 6.0 18.0 0.00 0.09 0.09 46 1010.5
20240612181003 83 232 10.0 20.0 0.00 0.09 0.09 45 1010.4
20240612175003 83 207 5.0 14.0 0.00 0.09 0.09 44 1010.9
20240612174003 83 213 3.0 16.0 0.00 0.09 0.09 46 1010.6
20240612173003 83 199 7.0 14.0 0.00 0.09 0.09 42 1010.6
20240612172003 82 227 8.0 17.0 0.00 0.09 0.09 43 1010.7
20240612170003 82 206 7.0 14.0 0.00 0.09 0.09 43 1010.7
20240612165004 81 189 6.0 17.0 0.00 0.09 0.09 46 1010.6
20240612164003 81 203 6.0 14.0 0.00 0.09 0.09 52 1010.6
20240612163003 80 194 5.0 14.0 0.00 0.09 0.09 51 1010.9
20240612162003 80 218 6.0 13.0 0.00 0.09 0.09 53 1010.9
20240612161003 81 150 3.0 10.0 0.00 0.09 0.09 57 1010.7
20240612160003 80 235 7.0 12.0 0.00 0.09 0.09 57 1010.9
20240612155003 78 239 6.0 14.0 0.00 0.09 0.09 59 1010.8
20240612153003 77 242 5.0 9.0 0.00 0.09 0.09 61 1011.1
20240612152003 77 225 3.0 6.0 0.00 0.09 0.09 63 1010.8
20240612151003 76 193 3.0 7.0 0.00 0.09 0.09 65 1011.1
20240612150003 76 222 3.0 7.0 0.00 0.09 0.09 66 1011.2
20240612145003 75 216 3.0 6.0 0.00 0.09 0.09 68 1011.1
20240612144003 74 175 1.0 6.0 0.00 0.09 0.09 70 1011.2
20240612143003 73 243 3.0 7.0 0.00 0.09 0.09 70 1011.2
20240612142003 72 286 3.0 7.0 0.00 0.09 0.09 70 1011.1
20240612141003 72 244 2.0 6.0 0.00 0.09 0.09 71 1010.9
20240612140003 72 292 2.0 6.0 0.00 0.09 0.09 73 1010.5
20240612135003 70 275 2.0 7.0 0.00 0.09 0.09 75 1010.9
20240612134004 69 188 3.0 7.0 0.00 0.09 0.09 76 1011.0
20240612133004 68 217 3.0 7.0 0.00 0.09 0.09 77 1011.0
20240612132003 67 146 2.0 9.0 0.00 0.09 0.09 78 1010.9
20240612131003 66 201 3.0 9.0 0.00 0.09 0.09 78 1011.1
20240612130004 65 196 5.0 9.0 0.00 0.09 0.09 78 1011.2
20240612125003 65 180 2.0 6.0 0.00 0.09 0.09 79 1011.2
20240612124003 64 198 2.0 9.0 0.00 0.09 0.09 81 1011.4
20240612123003 63 197 4.0 9.0 0.00 0.09 0.09 81 1011.5
20240612121004 62 198 5.0 7.0 0.00 0.09 0.09 83 1011.4
20240612115003 59 195 3.0 7.0 0.00 0.09 0.09 88 1011.2
20240612114003 58 167 2.0 5.0 0.00 0.09 0.09 92 1011.3
20240612113004 56 191 2.0 3.0 0.00 0.09 0.09 98 1011.5
20240612111003 55 306 1.0 2.0 0.00 0.09 0.09 99 1011.3
20240612110003 55 0 0.0 2.0 0.00 0.09 0.09 99 1011.2
20240612105003 54 38 1.0 2.0 0.00 0.09 0.09 99 1011.1
20240612104003 54 10 2.0 3.0 0.00 0.09 0.09 99 1011.2
20240612103003 53 48 2.0 3.0 0.00 0.09 0.09 99 1011.3
20240612102003 53 165 0.0 3.0 0.00 0.09 0.09 99 1011.2
20240612100003 53 123 1.0 1.0 0.00 0.09 0.09 99 1010.8
20240612095003 53 111 1.0 2.0 0.00 0.09 0.09 99 1010.7
20240612094003 53 130 0.0 2.0 0.00 0.09 0.09 99 1010.7
20240612093004 53 103 2.0 3.0 0.00 0.09 0.09 99 1010.7
20240612092003 53 118 0.0 2.0 0.00 0.09 0.09 99 1010.7
20240612090003 53 91 1.0 2.0 0.00 0.09 0.09 99 1010.4
20240612085003 53 51 1.0 2.0 0.00 0.09 0.09 99 1010.2
20240612084003 53 34 0.0 1.0 0.00 0.09 0.09 99 1010.5
20240612083003 54 104 1.0 2.0 0.00 0.09 0.09 99 1010.3
20240612081003 54 123 1.0 2.0 0.00 0.09 0.09 99 1010.2
20240612080003 54 98 1.0 2.0 0.00 0.09 0.09 99 1010.4
20240612075003 54 98 1.0 2.0 0.00 0.09 0.09 99 1010.4
20240612074003 55 72 1.0 2.0 0.00 0.09 0.09 98 1010.2
20240612072003 55 90 2.0 3.0 0.00 0.09 0.09 98 1010.3
20240612071003 55 94 2.0 2.0 0.00 0.09 0.09 98 1010.4
20240612070003 56 85 1.0 3.0 0.00 0.09 0.09 98 1010.5
20240612065003 56 95 1.0 2.0 0.00 0.09 0.09 97 1010.4
20240612062003 56 78 2.0 3.0 0.09 0.09 0.09 96 1010.7
20240612061003 56 118 3.0 5.0 0.09 0.09 0.09 95 1010.8
20240612060003 56 92 2.0 3.0 0.09 0.09 0.09 94 1010.9
20240612055003 57 100 2.0 5.0 0.08 0.09 0.09 93 1011.0
20240612053003 58 117 2.0 8.0 0.07 0.07 0.07 84 1011.6
20240612052004 60 294 5.0 6.0 0.00 0.00 0.00 73 1011.1
20240612051003 60 121 2.0 5.0 0.00 0.00 0.00 73 1010.7
20240612050003 59 116 3.0 6.0 0.00 0.00 0.00 73 1010.9
20240612045003 59 128 3.0 5.0 0.00 0.00 0.00 74 1010.9
20240612044003 59 144 3.0 6.0 0.00 0.00 0.00 73 1011.0
20240612043003 59 118 1.0 3.0 0.00 0.00 0.00 73 1011.1
20240612042004 60 96 3.0 5.0 0.00 0.00 0.00 72 1011.0
20240612041004 60 112 2.0 5.0 0.00 0.00 0.00 72 1011.0
20240612040004 60 108 2.0 6.0 0.00 0.00 0.00 71 1011.1
20240612034004 60 148 3.0 9.0 0.00 0.00 0.00 71 1011.3
20240612031004 61 130 3.0 7.0 0.00 0.00 0.00 70 1011.3
20240612030004 61 115 2.0 7.0 0.00 0.00 0.00 71 1011.4
20240612024003 61 112 3.0 6.0 0.00 0.00 0.00 71 1011.3
20240612022003 62 103 2.0 8.0 0.00 0.00 0.00 71 1011.0
20240612015003 62 118 2.0 9.0 0.00 0.00 0.00 71 1011.2
20240612014003 62 131 4.0 8.0 0.00 0.00 0.00 71 1011.0
20240612013004 62 115 3.0 7.0 0.00 0.00 0.00 71 1011.3
20240612011004 63 126 3.0 6.0 0.00 0.00 0.00 70 1011.0
20240612010004 63 116 3.0 8.0 0.00 0.00 0.00 72 1011.4
20240612005004 63 99 3.0 6.0 0.00 0.00 0.00 73 1011.1
20240612004003 63 103 3.0 9.0 0.00 0.00 0.00 73 1011.3
20240612003004 63 99 3.0 7.0 0.00 0.00 0.00 75 1011.7
20240612001004 63 117 4.0 7.0 0.00 0.00 0.00 75 1011.7
20240612000003 62 125 4.0 7.0 0.00 0.00 0.00 76 1011.7
20240611235003 63 120 2.0 6.0 0.00 0.00 0.00 76 1011.7
20240611234004 62 129 2.0 9.0 0.00 0.00 0.00 76 1011.5
20240611233003 62 121 5.0 7.0 0.00 0.00 0.00 76 1011.6
20240611232003 62 136 3.0 12.0 0.00 0.00 0.00 76 1011.7
20240611231003 62 113 3.0 8.0 0.00 0.00 0.00 76 1011.7
20240611230004 62 104 3.0 12.0 0.00 0.00 0.00 76 1011.7
20240611225005 63 159 2.0 9.0 0.00 0.00 0.00 76 1011.8
20240611224003 63 134 3.0 8.0 0.00 0.00 0.00 76 1011.7
20240611223003 63 112 4.0 12.0 0.00 0.00 0.00 77 1011.9
20240611221004 63 131 3.0 8.0 0.00 0.00 0.00 78 1012.0
20240611220004 64 113 3.0 8.0 0.00 0.00 0.00 76 1012.1
20240611215003 64 117 3.0 9.0 0.00 0.00 0.00 72 1012.4
20240611214003 64 123 3.0 7.0 0.00 0.00 0.00 72 1012.5
20240611213003 64 128 4.0 9.0 0.00 0.00 0.00 72 1012.4
20240611212003 64 106 5.0 7.0 0.00 0.00 0.00 72 1012.6
20240611211002 64 109 3.0 9.0 0.00 0.00 0.00 72 1012.8
20240611210003 64 128 3.0 9.0 0.00 0.00 0.00 75 1013.0
20240611205003 65 110 3.0 9.0 0.00 0.00 0.00 72 1012.9
20240611204002 65 145 3.0 10.0 0.00 0.00 0.00 71 1013.0
20240611203003 66 128 5.0 13.0 0.00 0.00 0.00 65 1013.0
20240611202003 68 152 3.0 12.0 0.00 0.00 0.00 62 1013.0
20240611201003 69 137 3.0 13.0 0.00 0.00 0.00 51 1013.3
20240611195002 69 184 3.0 10.0 0.00 0.00 0.00 49 1013.2
20240611194003 69 199 5.0 8.0 0.00 0.00 0.00 49 1013.5
20240611193003 70 207 3.0 9.0 0.00 0.00 0.00 48 1013.4